Weather History for Rome, NY

Change the Weather History Date:

Sunday, May 11, 2014

  Actual Average Record
Temperature  
Mean Temperature 57 °F -  
Max Temperature 70 °F 69 °F 87 °F (1987)
Min Temperature 44 °F 43 °F 33 °F (1982)
Degree Days  
Heating Degree Days 8    
Growing Degree Days 7 (Base 50)    
Moisture  
Dew Point 40 °F    
Average Humidity 58    
Maximum Humidity 86    
Minimum Humidity 30    
Precipitation  
Precipitation 0.00 in - - ()
Sea Level Pressure  
Sea Level Pressure 30.03 in    
Wind  
Wind Speed 5 mph (WNW)    
Max Wind Speed 13 mph    
Max Gust Speed 23 mph    
Visibility 10 miles    
Events      
Averages and records for this station are not official NWS values.
T = Trace of Precipitation, MM = Missing Value Source: NWS Daily Summary

Daily Weather History Graph

Daily Weather History Graph

Search for Another Location

Airport:

Trip Planner

Search our weather history database for the weather conditions in past years. The results will help you decide how hot, cold, wet, or windy it might be!

Date:

Astronomy

May. 11, 2014 Rise Set
Actual Time 5:42 AM EDT 8:14 PM EDT
Civil Twilight 5:09 AM EDT 8:46 PM EDT
Nautical Twilight 4:29 AM EDT 9:27 PM EDT
Astronomical Twilight 3:43 AM EDT 10:13 PM EDT
Moon 5:02 PM EDT (5/11) 3:52 AM EDT (5/11)
Length of Visible Light 15h 37m
Length of Day
14h 32m
Waxing Gibbous, 89% of the Moon is Illuminated
May 11
Waxing Gibbous
May 14
Full
May 21
Last Quarter
May 28
New
Jun 5
First Quarter

Hourly Weather History & Observations

Time (EDT) Temp. Dew Point Humidity Pressure Visibility Wind Dir Wind Speed Gust Speed Precip Events Conditions
12:53 AM 48.9 °F 43.0 °F 80% 29.93 in 10.0 mi Calm Calm - N/A   Clear
1:53 AM 48.0 °F 43.0 °F 83% 29.93 in 10.0 mi NE 3.5 mph - N/A   Clear
2:53 AM 46.9 °F 41.0 °F 80% 29.94 in 10.0 mi North 3.5 mph - N/A   Clear
3:53 AM 45.0 °F 41.0 °F 86% 29.95 in 10.0 mi Calm Calm - N/A   Clear
4:53 AM 44.1 °F 39.0 °F 82% 29.97 in 10.0 mi Calm Calm - N/A   Clear
5:53 AM 46.0 °F 39.0 °F 76% 29.99 in 10.0 mi Calm Calm - N/A   Clear
6:53 AM 46.0 °F 41.0 °F 83% 30.03 in 10.0 mi Calm Calm - N/A   Clear
7:53 AM 51.1 °F 41.0 °F 68% 30.06 in 10.0 mi WNW 10.4 mph - N/A   Clear
8:53 AM 54.0 °F 41.0 °F 62% 30.07 in 10.0 mi WNW 9.2 mph - N/A   Clear
9:53 AM 57.0 °F 41.0 °F 55% 30.07 in 10.0 mi WNW 11.5 mph - N/A   Clear
10:53 AM 60.1 °F 39.9 °F 47% 30.06 in 10.0 mi West 10.4 mph - N/A   Clear
11:53 AM 63.0 °F 39.0 °F 41% 30.07 in 10.0 mi WNW 12.7 mph 20.7 mph N/A   Clear
12:53 PM 64.9 °F 39.0 °F 39% 30.08 in 10.0 mi West 12.7 mph - N/A   Clear
2:53 PM 66.9 °F 37.9 °F 34% 30.08 in 10.0 mi West 11.5 mph - N/A   Clear
3:53 PM 68.0 °F 37.9 °F 33% 30.06 in 10.0 mi West 10.4 mph - N/A   Clear
4:53 PM 69.1 °F 37.0 °F 31% 30.06 in 10.0 mi West 11.5 mph - N/A   Clear
5:53 PM 70.0 °F 37.0 °F 30% 30.05 in 10.0 mi WSW 12.7 mph 23.0 mph N/A   Clear
6:53 PM 69.1 °F 37.0 °F 31% 30.04 in 10.0 mi WSW 11.5 mph - N/A   Clear
7:53 PM 68.0 °F 37.0 °F 32% 30.06 in 10.0 mi West 5.8 mph - N/A   Clear
8:53 PM 60.1 °F 41.0 °F 49% 30.06 in 10.0 mi North 4.6 mph - N/A   Clear
9:53 PM 57.0 °F 43.0 °F 59% 30.07 in 10.0 mi Calm Calm - N/A   Clear
10:53 PM 52.0 °F 42.1 °F 69% 30.06 in 10.0 mi Calm Calm - N/A   Clear
11:53 PM 48.9 °F 42.1 °F 77% 30.08 in 10.0 mi NNE 3.5 mph - N/A   Clear